Springfield, MO

9:46 AM CST on December 13, 2019 (GMT -0600)
Springfield-Branson Regional

Weather History for KSGF - October, 2019

Change the Weather History Date:

Sunday, October 20, 2019

  Actual Average Record
Temperature  
Mean Temperature 59 °F 57 °F  
Max Temperature 73 °F 68 °F 88 °F (1979)
Min Temperature 44 °F 45 °F 24 °F (1960)
Degree Days  
Heating Degree Days 6 9  
Month to date heating degree days 145 134  
Since 1 July heating degree days 145 189  
Cooling Degree Days 0 1  
Month to date cooling degree days 37 26  
Year to date cooling degree days 1687 1385  
Growing Degree Days 8 (Base 50)    
Moisture  
Dew Point 51 °F    
Average Humidity 77    
Maximum Humidity 100    
Minimum Humidity 53    
Precipitation  
Precipitation 0.12 in 0.12 in 1.73 in (1983)
Month to date precipitation 4.46 2.30  
Year to date precipitation 46.15 37.02  
Snow  
Snow 0.00 in - - ()
Month to date snowfall 0.0  
Since 1 July snowfall 0.0  
Since 1 September snowfall 0.0  
Snow Depth 0.00 in    
Sea Level Pressure  
Sea Level Pressure 29.80 in    
Wind  
Wind Speed 10 mph (ESE)    
Max Wind Speed 24 mph    
Max Gust Speed 38 mph    
Visibility 5 miles    
Events Fog , Rain , Thunderstorm    
T = Trace of Precipitation, MM = Missing Value Source: NWS Daily Summary

Daily Weather History Graph

Daily Weather History Graph

Search for Another Location

Airport or City:

Astronomy

Oct. 20, 2019 Rise Set
Actual Time 7:25 AM CDT 6:30 PM CDT
Civil Twilight 6:59 AM CDT 6:56 PM CDT
Nautical Twilight 6:29 AM CDT 7:26 PM CDT
Astronomical Twilight 5:59 AM CDT 7:57 PM CDT
Moon 11:44 PM CDT (10/20) 1:49 PM CDT (10/20)
Length of Visible Light 11h 57m
Length of Day
11h 04m
Waning Gibbous, 59% of the Moon is Illuminated
Oct 20
Waning Gibbous
Oct 21
Last Quarter
Oct 27
New
Nov 4
First Quarter
Nov 12
Full

Hourly Weather History & Observations

Time (CDT) Temp. Windchill Dew Point Humidity Pressure Visibility Wind Dir Wind Speed Gust Speed Precip Events Conditions
12:00 AM 52.0 °F - 50.0 °F 93% 29.85 in 1.5 mi Calm Calm - N/A   Partly Cloudy
12:07 AM 52.0 °F - 50.0 °F 93% 29.85 in 0.5 mi NNW 3.5 mph - N/A Fog Fog
12:15 AM 51.1 °F - 48.9 °F 92% 29.85 in 0.5 mi NNW 4.6 mph - N/A Fog Fog
12:20 AM 50.0 °F - 48.9 °F 96% 29.85 in 1.2 mi North 3.5 mph - N/A   Partly Cloudy
12:29 AM 51.1 °F - 48.9 °F 92% 29.85 in 3.0 mi Calm Calm - N/A   Partly Cloudy
12:36 AM 51.1 °F - 48.9 °F 92% 29.84 in 2.0 mi NNE 3.5 mph - N/A   Partly Cloudy
12:45 AM 51.1 °F - 48.9 °F 92% 29.84 in 9.0 mi NNE 4.6 mph - N/A   Clear
12:52 AM 50.0 °F - 48.0 °F 93% 29.83 in 8.0 mi NNE 4.6 mph - N/A   Clear
1:20 AM 48.9 °F - 48.0 °F 97% 29.84 in 3.0 mi Calm Calm - N/A   Scattered Clouds
1:27 AM 50.0 °F - 48.0 °F 93% 29.84 in 2.0 mi North 4.6 mph - N/A   Scattered Clouds
1:34 AM 48.9 °F - 46.9 °F 93% 29.85 in 1.2 mi NNE 3.5 mph - N/A   Mostly Cloudy
1:41 AM 48.9 °F - 48.0 °F 97% 29.84 in 0.2 mi NNE 3.5 mph - N/A Fog Fog
1:52 AM 48.9 °F - 48.0 °F 97% 29.84 in 0.2 mi NE 3.5 mph - N/A Fog Fog
2:04 AM 50.0 °F - 48.9 °F 96% 29.85 in 0.2 mi Calm Calm - N/A Fog Fog
2:13 AM 50.0 °F - 48.0 °F 93% 29.84 in 0.2 mi NNE 3.5 mph - N/A Fog Fog
2:52 AM 48.9 °F - 46.9 °F 93% 29.84 in 0.2 mi SE 3.5 mph - N/A Fog Fog
3:02 AM 48.0 °F - 46.9 °F 96% 29.85 in 0.2 mi SE 3.5 mph - N/A Fog Fog
3:27 AM 48.0 °F - 46.9 °F 96% 29.84 in 0.2 mi SE 4.6 mph - N/A Fog Fog
3:52 AM 48.0 °F - 46.9 °F 96% 29.83 in 0.2 mi Calm Calm - N/A Fog Fog
4:52 AM 46.9 °F - 46.0 °F 97% 29.83 in 0.2 mi Calm Calm - N/A Fog Fog
5:03 AM 46.9 °F - 45.0 °F 93% 29.84 in 0.2 mi Calm Calm - N/A Fog Fog
5:14 AM 46.0 °F - 45.0 °F 96% 29.85 in 0.5 mi Calm Calm - N/A Fog Fog
5:22 AM 46.0 °F - 45.0 °F 96% 29.85 in 0.2 mi Calm Calm - N/A Fog Fog
5:52 AM 44.1 °F - 43.0 °F 96% 29.85 in 0.5 mi Calm Calm - N/A Fog Fog
6:06 AM 45.0 °F 43.5 °F 43.0 °F 93% 29.85 in 0.2 mi ESE 3.5 mph - N/A Fog Fog
6:52 AM 48.0 °F - 46.9 °F 96% 29.84 in 0.2 mi SE 3.5 mph - N/A Fog Fog
7:52 AM 50.0 °F - 48.9 °F 96% 29.85 in 0.2 mi SE 9.2 mph - N/A Fog Fog
8:21 AM 51.1 °F - 50.0 °F 96% 29.85 in 0.8 mi SE 8.1 mph - N/A   Mist
8:38 AM 51.1 °F - 50.0 °F 96% 29.86 in 2.0 mi ESE 8.1 mph - N/A   Overcast
8:52 AM 52.0 °F - 51.1 °F 97% 29.86 in 5.0 mi ESE 8.1 mph - N/A   Overcast
9:40 AM 53.1 °F - 51.1 °F 93% 29.87 in 8.0 mi SE 6.9 mph - N/A   Mostly Cloudy
9:52 AM 54.0 °F - 52.0 °F 93% 29.87 in 8.0 mi SE 5.8 mph - N/A   Mostly Cloudy
10:07 AM 55.9 °F - 52.0 °F 87% 29.88 in 10.0 mi ESE 4.6 mph - N/A   Scattered Clouds
10:52 AM 60.1 °F - 52.0 °F 75% 29.86 in 10.0 mi ESE 8.1 mph - N/A   Clear
11:52 AM 64.9 °F - 54.0 °F 68% 29.83 in 10.0 mi SSE 6.9 mph - N/A   Clear
12:48 PM 66.2 °F - 55.4 °F 68% 29.82 in 10.0 mi SSE 12.7 mph - N/A   Mostly Cloudy
12:52 PM 66.0 °F - 54.0 °F 65% 29.81 in 10.0 mi SE 8.1 mph - N/A   Mostly Cloudy
1:25 PM 71.1 °F - 55.9 °F 59% 29.79 in 10.0 mi South 10.4 mph - N/A   Mostly Cloudy
1:52 PM 71.1 °F - 55.9 °F 59% 29.77 in 10.0 mi SSE 13.8 mph - N/A   Partly Cloudy
2:52 PM 72.0 °F - 55.9 °F 57% 29.73 in 10.0 mi South 18.4 mph 24.2 mph N/A   Mostly Cloudy
3:52 PM 73.0 °F - 55.0 °F 53% 29.71 in 10.0 mi SSE 15.0 mph - N/A   Clear
4:52 PM 72.0 °F - 57.0 °F 59% 29.70 in 10.0 mi SSE 16.1 mph 23.0 mph 0.00 in Rain Light Rain
5:52 PM 70.0 °F - 57.0 °F 63% 29.69 in 10.0 mi SSE 11.5 mph 19.6 mph 0.00 in   Clear
6:52 PM 66.9 °F - 57.0 °F 70% 29.68 in 10.0 mi SE 11.5 mph - N/A   Clear
7:52 PM 66.0 °F - 55.9 °F 70% 29.68 in 10.0 mi SE 13.8 mph - N/A   Clear
8:52 PM 66.0 °F - 55.9 °F 70% 29.67 in 10.0 mi SE 15.0 mph - N/A   Scattered Clouds
9:52 PM 64.9 °F - 55.9 °F 73% 29.63 in 10.0 mi SE 16.1 mph 26.5 mph N/A   Clear
10:52 PM 66.0 °F - 57.9 °F 75% 29.59 in 10.0 mi SE 17.3 mph 27.6 mph N/A   Clear
11:52 PM 66.0 °F - 60.1 °F 81% 29.47 in 10.0 mi SE 21.9 mph 34.5 mph 0.00 in   Mostly Cloudy
11:59 PM 66.0 °F - 60.1 °F 81% 29.50 in 10.0 mi SE 20.7 mph 31.1 mph N/A Thunderstorm Mostly Cloudy